CAPE
2 7 6 9 11 15 9 2 0 0 0 1 4 5 1 1 0 27 5 25 27 7 1 6 18 14 14 0 0 0 2 0 0 1 6 4 0 0 0 0 0 0 0 0 0 0 0 0 0 0 0 0 0 0
0 1 2 7 14 10 4 0 1 0 11 1 3 9 10 3 9 27 16 26 35 42 7 14 18 28 6 0 0 0 0 2 2 0 4 3 0 0 0 0 0 0 0 0 0 0 0 0 0 0 0 0 0 0
4 2 5 8 6 2 0 0 1 10 13 18 22 8 3 8 21 31 9 20 53 37 8 4 2 8 16 2 0 0 2 1 0 0 0 1 5 0 0 0 0 0 0 0 0 0 0 0 0 0 0 0 0 0
5 2 2 4 4 0 0 1 8 9 21 9 4 9 9 10 21 23 22 29 31 8 4 0 3 13 10 0 0 0 0 0 2 0 0 0 0 0 0 0 0 0 0 0 0 0 0 0 0 0 0 0 0 0
0 0 0 2 0 0 0 2 4 15 5 1 6 2 15 19 17 23 54 44 39 9 15 17 20 9 3 0 0 0 0 1 3 13 0 0 0 0 0 0 0 0 0 0 0 0 0 0 0 0 0 0 0 0
0 0 0 0 0 0 1 4 10 5 0 2 3 20 18 19 18 42 36 23 56 17 17 12 12 18 17 0 0 2 0 2 2 7 7 0 0 0 0 0 0 0 0 0 0 0 0 0 0 0 0 0 0 0
0 1 0 0 0 3 6 8 5 2 2 1 5 29 18 10 34 16 0 2 1 32 0 10 5 3 10 19 2 9 3 3 2 4 4 3 3 0 0 0 0 0 0 0 0 0 0 0 0 0 0 0 0 0
0 0 0 0 0 3 3 7 5 2 1 9 24 15 14 18 25 1 46 0 9 10 9 17 8 7 34 31 19 17 10 7 3 4 5 5 1 0 0 0 0 0 0 0 0 0 0 0 0 0 0 0 0 0
0 0 0 0 2 1 0 7 3 1 11 16 9 9 17 6 0 1 17 0 32 1 15 13 11 12 26 37 24 32 2 0 0 2 4 10 0 0 0 0 0 0 0 0 0 0 0 0 0 0 0 0 0 0
0 0 2 6 3 0 0 8 1 4 19 29 14 4 0 1 8 17 1 9 5 24 28 17 9 10 18 34 32 16 33 7 1 0 3 4 6 2 2 0 0 0 0 0 0 0 0 0 0 0 0 0 0 0
3 11 11 6 1 0 4 2 0 18 17 20 0 0 1 8 20 2 0 0 1 2 7 6 12 13 2 10 12 20 17 6 0 0 10 5 0 0 0 0 0 0 0 0 0 0 0 0 0 0 0 0 0 0
10 10 6 2 3 3 5 0 1 22 10 1 2 3 6 1 0 0 0 5 4 2 9 0 0 1 0 2 9 2 15 10 0 20 15 0 0 0 0 0 0 0 0 0 0 0 0 0 0 0 0 0 0 0
10 9 2 2 3 5 1 0 1 18 3 0 3 0 0 0 0 0 0 4 2 6 4 0 0 0 1 0 0 4 4 0 21 20 3 0 0 0 0 0 0 0 0 0 0 0 0 0 0 0 0 0 0 0
4 4 0 2 2 6 0 0 14 1 1 0 0 0 0 0 0 3 2 6 4 11 12 4 0 3 8 0 0 2 3 5 9 0 0 0 0 0 0 0 0 0 0 0 0 0 0 0 0 0 0 0 0 0
1 0 0 0 3 6 0 4 19 8 2 0 0 0 0 5 23 25 6 2 0 0 18 8 5 31 12 0 0 0 0 0 0 0 0 0 0 0 0 0 0 0 0 0 0 0 0 0 0 0 0 0 0 0
3 3 3 6 7 1 3 26 31 12 20 9 2 12 9 0 18 27 14 1 1 0 13 14 24 22 15 2 1 1 3 0 0 0 0 0 0 0 0 0 0 0 0 0 0 0 0 0 0 0 0 0 0 0
6 9 2 7 6 2 15 33 14 0 0 12 10 0 11 20 26 17 7 4 0 0 8 22 20 13 2 0 3 0 3 0 7 0 0 0 0 0 0 0 0 0 0 0 0 0 0 0 0 0 0 0 0 0
9 6 4 8 19 8 16 18 0 0 0 0 5 8 11 28 16 11 1 8 0 4 14 12 22 10 6 0 0 0 0 0 0 0 0 0 0 0 0 0 0 0 0 0 0 0 0 0 0 0 0 0 0 0
5 14 8 9 20 1 0 0 1 2 0 0 0 11 13 32 21 1 2 44 8 1 23 13 0 0 0 0 0 6 5 0 0 0 0 0 0 0 0 0 0 0 0 0 0 0 0 0 0 0 0 0 0 0
4 17 7 6 3 1 0 0 9 35 31 18 29 12 3 5 30 48 20 68 42 32 6 0 0 0 0 0 0 0 1 1 0 0 0 0 0 0 0 0 0 0 0 0 0 0 0 0 0 0 0 0 0 0
1 18 15 1 5 6 2 10 67 69 24 30 14 14 10 33 40 30 22 66 43 0 0 0 0 0 0 0 3 0 0 0 0 0 0 0 0 0 0 0 0 0 0 0 0 0 0 0 0 0 0 0 0 0
0 6 1 5 3 2 1 1 9 8 22 15 33 33 20 22 33 84 86 29 0 0 0 0 0 0 0 0 0 0 0 0 0 0 0 0 0 0 0 0 0 0 0 0 0 0 0 0 0 0 0 0 0 0
5 1 3 1 0 0 0 0 3 32 2 12 24 36 22 26 28 43 32 7 0 0 0 0 3 4 4 1 0 0 0 0 0 0 0 0 0 0 0 0 0 0 0 0 0 0 0 0 0 0 0 0 0 0
0 0 0 0 0 0 0 0 0 1 2 1 0 0 0 0 1 10 0 0 0 0 0 0 0 0 0 0 0 0 0 0 0 0 0 0 0 0 0 0 0 0 0 0 0 0 0 0 0 0 0 0 0 0
0 0 0 0 0 0 0 0 0 0 0 0 0 0 0 0 0 0 0 0 0 0 0 0 0 0 0 0 0 0 0 0 0 0 0 0 0 0 0 0 0 0 0 0 0 0 0 0 0 0 0 0 0 0
0 0 0 0 0 0 0 0 0 0 0 0 0 0 0 0 1 6 0 0 0 1 0 0 0 0 0 0 0 0 0 0 0 0 0 0 0 0 0 0 0 0 0 0 0 0 0 0 0 0 0 0 0 0
0 0 2 0 1 0 0 0 0 0 0 0 0 0 0 21 12 2 1 1 1 1 0 0 0 0 0 0 0 0 0 0 0 0 0 0 0 0 0 0 0 0 0 0 0 0 0 0 0 0 0 0 0 0
1 0 0 0 1 0 0 0 0 0 0 0 0 1 2 1 0 1 3 1 1 1 0 0 0 0 0 0 0 0 0 0 0 0 0 0 0 0 0 0 0 0 0 0 0 0 0 0 0 0 0 0 0 0
2 2 0 1 0 0 0 0 1 0 1 1 1 3 1 2 2 2 1 1 2 3 1 0 1 0 0 0 0 0 0 0 0 0 0 0 0 0 0 0 0 0 0 0 0 0 0 0 0 0 0 0 0 0
1 0 2 2 0 1 0 0 1 0 0 1 0 0 0 0 0 1 1 2 1 0 1 1 1 0 0 0 0 0 0 0 0 0 0 0 0 0 0 0 0 0 0 0 0 0 0 0 0 0 0 0 0 0
2 2 1 0 1 2 1 0 1 0 0 0 0 0 0 0 1 0 0 1 3 3 2 0 0 0 0 0 0 0 0 0 0 0 0 0 0 0 0 0 0 0 0 0 0 0 0 0 0 0 0 0 0 0
2 1 2 0 0 0 0 0 2 1 1 0 0 0 0 1 0 0 0 0 2 1 4 5 1 3 5 5 4 3 5 3 0 0 0 0 0 0 0 0 0 0 0 0 0 0 0 0 0 0 0 0 0 0
1 1 0 0 0 0 0 0 0 0 0 0 1 0 0 1 0 0 0 0 0 0 0 1 1 1 2 2 1 1 1 1 1 0 0 0 0 0 0 0 0 0 0 0 0 0 0 0 0 0 0 0 0 0
CIN
-1 -1 -1 -0 -1 -0 -0 -0 -0 -0 -0 -0 -2 -2 -1 -1 -0 -0 -1 -0 -0 -0 -1 -6 -4 -2 -0 -0 -0 -0 -0 -0 -0 -2 -2 -4 -0 -0 -0 -0 -0 -0 -0 -0 -0 -0 -0 -0 -0 -0 -0 -0 -0 -0
-1 -2 -2 -0 -0 -0 -2 -0 -6 -5 -1 -0 -1 -0 -0 -0 -0 -0 -0 -0 -2 -0 -1 -2 -5 -2 -1 -0 -0 -0 -0 -1 -17 -0 -6 -2 -0 -0 -0 -0 -0 -0 -0 -0 -0 -0 -0 -0 -0 -0 -0 -0 -0 -0
-4 -1 -0 -0 -0 -1 -0 -0 -1 -1 -0 -0 -0 -0 -0 -0 -0 -0 -0 -1 -0 -0 -0 -1 -1 -3 -2 -7 -0 -0 -0 -0 -0 -0 -0 -3 -7 -0 -0 -0 -0 -0 -0 -0 -0 -0 -0 -0 -0 -0 -0 -0 -0 -0
-1 -1 -0 -0 -0 -0 -0 -1 -1 -0 -0 -0 -0 -0 -0 -0 -0 -0 -0 -1 -0 -0 -0 -0 -3 -2 -2 -0 -0 -0 -0 -0 -0 -0 -0 -0 -0 -0 -0 -0 -0 -0 -0 -0 -0 -0 -0 -0 -0 -0 -0 -0 -0 -0
-0 -0 -0 -0 -0 -0 -0 -2 -1 -0 -0 -0 -0 -0 -0 -0 -0 -0 -0 -0 -0 -1 -1 -3 -3 -3 -3 -0 -0 -0 -0 -0 -0 -0 -0 -0 -0 -0 -0 -0 -0 -0 -0 -0 -0 -0 -0 -0 -0 -0 -0 -0 -0 -0
-0 -0 -0 -0 -0 -0 -5 -0 -0 -0 -0 -0 -0 -0 -0 -0 -0 -0 -0 -0 -0 -3 -0 -1 -1 -1 -2 -0 -0 -0 -0 -0 -0 -0 -1 -0 -0 -0 -0 -0 -0 -0 -0 -0 -0 -0 -0 -0 -0 -0 -0 -0 -0 -0
-0 -0 -0 -0 -0 -4 -0 -0 -0 -0 -0 -0 -0 -1 -0 -0 -0 -0 -0 -2 -0 -0 -0 -1 -2 -0 -1 -1 -0 -0 -0 -0 -0 -0 -0 -1 -2 -0 -0 -0 -0 -0 -0 -0 -0 -0 -0 -0 -0 -0 -0 -0 -0 -0
-0 -0 -0 -0 -3 -0 -0 -0 -0 -0 -0 -0 -1 -3 -0 -0 -0 -0 -1 -0 -11 -0 -0 -0 -1 -2 -0 -0 -0 -0 -0 -1 -0 -0 -1 -0 -0 -0 -0 -0 -0 -0 -0 -0 -0 -0 -0 -0 -0 -0 -0 -0 -0 -0
-0 -0 -0 -0 -0 -0 -0 -0 -0 -0 -0 -1 -2 -5 -0 -0 -0 -0 -18 -26 -21 -10 -0 -1 -1 -1 -0 -1 -1 -0 -3 -0 -0 -0 -0 -2 -0 -0 -0 -0 -0 -0 -0 -0 -0 -0 -0 -0 -0 -0 -0 -0 -0 -0
-0 -0 -0 -0 -0 -0 -0 -0 -0 -1 -1 -0 -0 -0 -0 -0 -2 -5 -0 -3 -2 -0 -1 -1 -3 -4 -15 -0 -0 -1 -0 -1 -0 -0 -0 -1 -2 -2 -1 -0 -0 -0 -0 -0 -0 -0 -0 -0 -0 -0 -0 -0 -0 -0
-1 -0 -0 -0 -0 -0 -0 -1 -0 -0 -0 -0 -0 -0 -0 -0 -0 -0 -0 -0 -0 -0 -1 -1 -3 -3 -15 -1 -0 -0 -1 -5 -0 -0 -0 -1 -0 -0 -0 -0 -0 -0 -0 -0 -0 -0 -0 -0 -0 -0 -0 -0 -0 -0
-0 -0 -0 -0 -0 -1 -0 -0 -0 -0 -0 -5 -0 -0 -0 -0 -0 -0 -0 -1 -2 -3 -2 -0 -1 -6 -0 -0 -11 -0 -0 -5 -0 -2 -1 -0 -0 -0 -0 -0 -0 -0 -0 -0 -0 -0 -0 -0 -0 -0 -0 -0 -0 -0
-0 -0 -0 -0 -0 -0 -0 -0 -1 -0 -4 -0 -0 -0 -0 -0 -0 -0 -0 -0 -1 -2 -2 -0 -0 -4 -5 -0 -0 -1 -1 -0 -1 -0 -0 -0 -0 -0 -0 -0 -0 -0 -0 -0 -0 -0 -0 -0 -0 -0 -0 -0 -0 -0
-0 -2 -1 -0 -0 -0 -0 -0 -2 -0 -1 -0 -0 -0 -0 -0 -0 -2 -5 -5 -3 -4 -4 -4 -0 -2 -1 -0 -0 -0 -1 -4 -0 -0 -0 -0 -0 -0 -0 -0 -0 -0 -0 -0 -0 -0 -0 -0 -0 -0 -0 -0 -0 -0
-0 -0 -1 -0 -0 -0 -0 -0 -3 -0 -0 -0 -0 -0 -0 -2 -3 -3 -4 -2 -0 -0 -4 -3 -2 -0 -0 -0 -0 -0 -0 -0 -0 -0 -0 -0 -0 -0 -0 -0 -0 -0 -0 -0 -0 -0 -0 -0 -0 -0 -0 -0 -0 -0
-0 -0 -0 -0 -0 -1 -0 -0 -1 -6 -0 -0 -0 -4 -5 -0 -8 -1 -3 -1 -2 -0 -4 -2 -2 -1 -0 -0 -0 -0 -0 -0 -0 -0 -0 -0 -0 -0 -0 -0 -0 -0 -0 -0 -0 -0 -0 -0 -0 -0 -0 -0 -0 -0
-0 -0 -0 -0 -1 -4 -0 -0 -0 -0 -0 -0 -1 -0 -6 -2 -7 -4 -3 -3 -0 -0 -4 -2 -1 -2 -1 -0 -0 -0 -1 -0 -13 -0 -0 -0 -0 -0 -0 -0 -0 -0 -0 -0 -0 -0 -0 -0 -0 -0 -0 -0 -0 -0
-0 -0 -2 -0 -0 -0 -0 -0 -0 -0 -0 -0 -1 -2 -5 -3 -6 -2 -5 -2 -0 -3 -2 -3 -2 -3 -2 -0 -0 -0 -0 -0 -0 -0 -0 -0 -0 -0 -0 -0 -0 -0 -0 -0 -0 -0 -0 -0 -0 -0 -0 -0 -0 -0
-0 -0 -2 -10 -0 -0 -0 -0 -0 -5 -0 -0 -1 -9 -12 -3 -6 -4 -3 -1 -6 -1 -3 -2 -2 -0 -1 -0 -0 -2 -1 -0 -0 -0 -0 -0 -0 -0 -0 -0 -0 -0 -0 -0 -0 -0 -0 -0 -0 -0 -0 -0 -0 -0
-0 -0 -1 -2 -0 -0 -0 -0 -5 -2 -1 -1 -6 -4 -3 -6 -3 -1 -0 -1 -10 -8 -1 -0 -0 -0 -0 -0 -0 -0 -3 -2 -0 -0 -0 -0 -0 -0 -0 -0 -0 -0 -0 -0 -0 -0 -0 -0 -0 -0 -0 -0 -0 -0
-0 -1 -1 -0 -0 -0 -0 -0 -1 -1 -24 -3 -3 -3 -2 -1 -3 -4 -4 -1 -4 -0 -0 -0 -0 -0 -0 -0 -12 -0 -0 -0 -0 -0 -0 -0 -0 -0 -0 -0 -0 -0 -0 -0 -0 -0 -0 -0 -0 -0 -0 -0 -0 -0
-0 -1 -0 -0 -0 -0 -0 -0 -19 -24 -9 -5 -1 -1 -1 -3 -7 -5 -9 -7 -0 -0 -0 -0 -0 -0 -0 -0 -0 -0 -0 -0 -0 -0 -0 -0 -0 -0 -0 -0 -0 -0 -0 -0 -0 -0 -0 -0 -0 -0 -0 -0 -0 -0
-1 -1 -0 -1 -0 -0 -0 -0 -20 -0 -3 -1 -4 -2 -2 -1 -2 -3 -1 -3 -1 -0 -0 -0 -2 -1 -1 -3 -0 -0 -0 -0 -0 -0 -0 -0 -0 -0 -0 -0 -0 -0 -0 -0 -0 -0 -0 -0 -0 -0 -0 -0 -0 -0
-0 -0 -0 -0 -0 -0 -0 -0 -3 -4 -0 -14 -0 -0 -0 -0 -7 -2 -0 -0 -0 -0 -0 -0 -0 -0 -0 -0 -0 -0 -0 -0 -0 -0 -0 -0 -0 -0 -0 -0 -0 -0 -0 -0 -0 -0 -0 -0 -0 -0 -0 -0 -0 -0
-0 -0 -0 -0 -0 -0 -0 -0 -0 -0 -0 -0 -0 -0 -0 -0 -0 -0 -0 -0 -0 -0 -0 -0 -0 -0 -0 -0 -0 -0 -0 -0 -0 -0 -0 -0 -0 -0 -0 -0 -0 -0 -0 -0 -0 -0 -0 -0 -0 -0 -0 -0 -0 -0
-0 -0 -0 -0 -0 -0 -0 -0 -0 -0 -0 -0 -0 -0 -0 -0 -0 -0 -0 -0 -0 -0 -0 -0 -0 -0 -0 -0 -0 -0 -0 -0 -0 -0 -0 -0 -0 -0 -0 -0 -0 -0 -0 -0 -0 -0 -0 -0 -0 -0 -0 -0 -0 -0
-0 -0 -0 -0 -0 -0 -0 -0 -0 -0 -0 -0 -0 -0 -0 -1 -19 -0 -0 -0 -0 -0 -0 -0 -0 -0 -0 -0 -0 -0 -0 -0 -0 -0 -0 -0 -0 -0 -0 -0 -0 -0 -0 -0 -0 -0 -0 -0 -0 -0 -0 -0 -0 -0
-0 -0 -0 -0 -0 -0 -0 -0 -0 -0 -0 -0 -0 -0 -0 -0 -0 -0 -0 -0 -0 -0 -0 -0 -0 -0 -0 -0 -0 -0 -0 -0 -0 -0 -0 -0 -0 -0 -0 -0 -0 -0 -0 -0 -0 -0 -0 -0 -0 -0 -0 -0 -0 -0
-0 -0 -0 -0 -0 -0 -0 -0 -0 -0 -0 -0 -0 -0 -0 -0 -0 -0 -0 -0 -0 -0 -0 -0 -0 -0 -0 -0 -0 -0 -0 -0 -0 -0 -0 -0 -0 -0 -0 -0 -0 -0 -0 -0 -0 -0 -0 -0 -0 -0 -0 -0 -0 -0
-0 -0 -0 -0 -0 -0 -0 -0 -0 -0 -0 -0 -0 -0 -0 -0 -0 -0 -0 -0 -0 -0 -0 -0 -0 -0 -0 -0 -0 -0 -0 -0 -0 -0 -0 -0 -0 -0 -0 -0 -0 -0 -0 -0 -0 -0 -0 -0 -0 -0 -0 -0 -0 -0
-0 -0 -0 -0 -0 -0 -0 -0 -0 -0 -0 -0 -0 -0 -0 -0 -0 -0 -0 -0 -0 -0 -0 -0 -0 -0 -0 -0 -0 -0 -0 -0 -0 -0 -0 -0 -0 -0 -0 -0 -0 -0 -0 -0 -0 -0 -0 -0 -0 -0 -0 -0 -0 -0
-0 -0 -0 -0 -0 -0 -0 -0 -0 -0 -0 -0 -0 -0 -0 -0 -0 -0 -0 -0 -0 -0 -0 -0 -0 -0 -0 -0 -0 -0 -0 -0 -0 -0 -0 -0 -0 -0 -0 -0 -0 -0 -0 -0 -0 -0 -0 -0 -0 -0 -0 -0 -0 -0
-0 -0 -0 -0 -0 -0 -0 -0 -0 -0 -0 -0 -0 -0 -0 -0 -0 -0 -0 -0 -0 -0 -0 -0 -0 -0 -0 -0 -0 -0 -0 -0 -0 -0 -0 -0 -0 -0 -0 -0 -0 -0 -0 -0 -0 -0 -0 -0 -0 -0 -0 -0 -0 -0
Wind_Speed
26 27 28 27 27 29 28 29 25 26 29 36 39 37 39 41 43 43 44 39 34 35 40 37 34 34 31 29 27 25 27 32 30 28 27 25 25 27 26 23 21 21 20 22 21 19 21 8 8 13 14 14 14 9
25 27 27 27 28 27 30 26 27 35 44 46 45 47 46 46 46 45 45 40 38 39 34 30 36 32 33 30 27 24 27 29 27 26 24 24 23 22 21 26 24 25 19 18 17 20 15 5 14 7 13 14 13 11
25 26 26 27 27 29 29 33 42 45 46 46 45 45 46 47 49 50 46 39 35 40 38 43 42 38 35 28 27 27 26 22 27 22 24 22 23 20 25 22 19 23 18 18 17 21 21 21 25 8 9 13 12 12
25 26 27 28 29 33 41 40 44 45 44 42 42 42 44 46 49 51 47 39 33 27 35 38 32 33 34 29 32 28 30 28 30 31 28 24 24 22 24 21 20 20 13 21 23 23 18 23 24 15 14 11 10 10
26 26 27 28 35 42 37 45 44 43 41 40 40 40 41 43 38 44 42 41 38 34 25 29 30 35 33 35 35 34 29 29 29 31 33 34 25 23 24 23 24 20 18 21 21 14 17 14 14 13 16 16 14 12
26 26 27 35 40 39 44 43 41 40 39 38 37 35 38 15 20 33 37 44 42 38 32 28 22 25 31 33 33 34 29 28 28 29 31 34 26 27 28 31 27 19 21 20 19 17 18 17 16 13 14 15 16 14
25 27 38 39 42 44 43 41 40 38 37 36 34 31 16 17 27 36 28 24 29 29 28 30 30 27 29 29 28 27 24 26 30 30 35 38 32 30 35 35 28 23 26 26 25 21 21 22 18 8 10 12 14 14
28 39 37 44 45 44 41 39 38 37 35 33 27 16 10 15 25 36 25 18 19 25 27 29 28 26 24 26 27 25 25 24 27 28 30 35 29 31 39 40 39 25 25 28 28 28 27 24 21 8 10 12 13 13
38 37 45 45 44 42 40 38 37 35 34 23 5 6 12 24 28 29 21 14 20 25 29 30 29 27 22 28 25 23 24 32 28 33 34 28 37 38 35 40 38 42 40 36 34 33 33 31 29 25 11 12 12 13
40 46 46 44 42 41 40 39 37 35 21 10 9 20 23 23 16 13 18 25 29 31 31 36 34 29 23 26 29 27 31 33 32 35 31 46 50 46 41 33 34 37 37 35 35 35 32 32 31 24 16 14 12 13
47 46 45 43 42 42 41 40 37 24 21 21 18 21 18 18 17 23 25 29 27 31 33 35 38 31 22 28 29 27 30 31 33 32 32 35 46 50 47 45 39 37 36 35 36 34 32 31 29 22 17 14 13 13
46 45 44 44 43 44 43 42 36 22 22 19 14 13 17 19 21 25 29 29 30 35 26 35 36 34 20 24 29 28 32 31 32 24 32 39 38 37 39 45 46 44 42 42 39 35 35 31 25 10 9 13 14 13
47 46 45 44 43 44 35 40 39 24 15 19 17 22 22 22 29 36 39 36 34 23 24 23 24 28 18 22 29 30 39 39 28 33 36 38 31 32 35 34 39 43 46 46 45 42 38 37 33 21 4 11 11 13
48 47 47 46 45 29 29 31 27 23 24 23 23 27 29 31 33 32 37 33 30 27 18 21 21 24 20 22 28 33 34 32 39 42 48 37 33 32 33 33 35 39 42 45 45 45 45 44 41 28 11 10 11 12
47 48 49 49 50 26 28 26 26 29 25 24 29 35 37 32 28 28 26 27 29 29 20 20 24 23 25 28 25 29 35 40 39 45 39 33 33 35 35 35 36 34 37 39 41 42 42 42 42 11 9 8 12 8
46 43 43 33 26 29 29 27 28 32 30 30 31 36 32 37 27 26 26 25 24 31 24 23 26 27 28 30 30 31 38 43 40 35 34 33 33 34 35 34 35 33 33 34 35 38 34 32 14 11 9 12 10 12
26 34 25 28 29 30 31 32 34 30 34 37 41 41 34 35 31 28 26 24 24 31 28 30 28 30 25 36 36 33 31 28 28 23 24 24 25 28 31 31 28 30 31 32 30 32 30 26 20 11 9 10 9 10
33 24 24 31 30 30 39 39 31 29 36 49 49 42 44 34 32 34 34 29 32 33 31 36 32 35 36 37 46 41 35 35 37 31 24 22 23 24 25 29 28 28 29 28 28 26 23 21 16 13 8 6 7 6
26 26 26 33 33 33 32 32 34 33 42 44 45 42 39 40 34 35 38 34 34 34 35 40 44 46 47 42 35 29 32 38 35 34 35 31 30 28 27 27 24 24 23 21 22 21 20 18 16 10 7 6 6 6
29 31 29 36 35 31 25 29 30 34 38 39 41 43 42 39 35 37 39 37 37 37 42 55 53 48 39 41 44 40 34 31 32 34 35 34 33 32 30 26 21 19 19 18 18 17 14 13 11 10 8 7 6 6
28 37 31 34 34 26 22 23 29 34 30 33 34 35 37 36 38 38 41 36 41 53 52 49 49 49 48 45 34 34 34 33 36 36 36 35 32 30 27 23 17 17 18 17 16 15 14 13 11 10 8 7 5 5
21 32 34 34 27 22 23 25 26 20 26 29 30 33 34 39 38 37 35 45 52 51 47 46 43 39 42 46 48 43 37 36 36 38 39 37 35 32 29 23 18 21 21 20 17 14 13 11 9 8 7 5 3 3
26 32 28 26 24 21 25 22 22 25 27 30 29 33 36 36 38 32 40 44 47 44 47 47 44 42 41 38 37 41 42 39 38 37 37 35 33 29 24 22 19 19 20 18 15 12 10 9 8 6 5 3 2 2
22 24 26 24 21 21 23 27 27 26 23 27 31 36 35 35 32 41 48 51 45 41 45 45 43 45 44 41 41 40 39 39 38 36 36 32 29 27 23 19 17 18 18 13 13 12 10 9 7 6 4 3 1 1
22 20 21 28 23 25 29 34 35 33 29 28 29 29 30 33 41 44 50 48 47 47 43 35 35 36 43 44 41 39 35 35 35 36 35 33 27 22 19 18 16 17 16 13 13 11 10 9 7 6 4 3 2 1
22 22 25 27 25 25 22 23 32 35 37 39 38 34 36 34 36 41 46 40 40 42 39 37 31 31 40 43 42 42 39 35 36 36 33 31 28 25 19 18 16 17 17 16 12 11 9 8 7 5 5 4 3 2
25 24 25 22 24 24 25 23 23 25 28 34 42 42 39 40 37 34 29 28 32 31 30 30 23 39 41 37 34 35 35 37 35 31 26 24 22 21 19 17 15 16 15 13 11 9 8 7 6 5 4 5 5 5
23 21 24 26 24 23 24 25 26 27 28 27 30 37 33 31 30 26 26 26 27 26 22 24 26 30 30 32 32 34 34 27 22 18 18 17 16 15 14 13 10 11 12 10 8 6 5 4 4 3 3 5 6 9
20 20 20 16 19 20 22 26 26 24 23 25 28 27 25 22 21 22 24 25 22 20 17 18 21 20 20 18 16 20 23 25 29 28 24 20 17 14 14 13 12 10 9 7 6 5 5 4 4 5 6 8 10 10
19 18 19 18 18 18 17 19 21 21 19 18 17 13 14 16 12 12 12 11 11 14 15 16 14 13 16 15 16 15 15 19 21 20 18 16 14 14 12 11 9 7 5 4 3 4 5 6 7 9 10 11 12 12
18 18 17 16 16 14 8 5 5 4 2 1 2 11 10 16 11 5 5 8 9 10 11 10 10 11 12 13 14 14 14 13 12 10 10 9 9 8 6 5 5 4 5 5 6 7 8 10 11 11 12 14 15 16
16 17 16 14 13 14 11 9 7 6 8 9 5 12 17 19 20 11 6 8 11 10 8 9 11 10 8 8 6 7 9 10 9 8 7 6 4 4 4 4 5 6 6 8 9 10 11 12 14 15 17 18 18 18
14 11 7 8 12 13 12 12 11 9 8 9 9 10 11 16 16 14 13 9 12 13 11 9 9 9 7 6 6 5 4 3 2 2 2 3 4 5 6 7 8 9 10 11 12 14 15 16 18 19 19 21 22 22
Wind_Direction
298 301 304 306 307 308 306 306 301 299 295 287 280 279 269 260 249 243 239 246 249 249 246 250 252 247 238 242 245 253 240 231 232 237 237 242 242 240 243 243 242 251 258 261 263 272 276 327 330 298 329 0 8 50
296 299 303 305 306 306 307 302 299 292 275 271 269 258 251 245 240 236 238 241 243 243 247 257 249 255 239 239 252 253 245 233 230 238 238 243 244 242 240 242 248 249 256 264 264 262 279 51 288 14 347 17 20 46
294 298 302 303 305 306 302 296 281 273 266 260 253 247 241 238 228 224 231 237 241 240 250 246 243 244 245 248 245 243 239 243 237 241 243 247 244 244 239 248 243 249 249 258 256 253 255 248 204 349 75 9 26 60
293 297 300 303 303 299 284 286 281 263 258 253 248 240 234 227 216 218 225 232 234 245 243 243 249 241 239 238 233 247 241 247 241 234 237 244 247 250 242 248 246 248 244 249 247 250 262 239 197 148 143 109 62 68
291 295 299 301 297 283 291 273 261 257 254 250 245 239 228 207 224 222 227 229 229 232 245 248 252 241 238 233 233 232 242 242 236 236 237 237 250 248 245 246 245 245 252 247 244 259 259 276 291 122 145 147 125 102
288 292 297 294 286 287 262 259 254 253 249 246 243 236 223 204 212 219 226 226 225 232 243 244 251 246 235 233 236 232 241 247 240 234 233 234 240 239 241 240 244 248 248 250 250 259 260 265 277 314 136 141 142 127
285 290 288 286 277 260 258 254 250 245 241 239 237 240 244 187 214 215 228 236 221 231 239 245 248 246 239 233 236 241 250 248 240 241 238 231 237 241 237 234 240 246 243 243 243 250 252 248 269 355 87 117 134 137
284 283 285 269 260 256 250 246 241 236 235 226 238 246 208 190 214 220 236 240 203 230 238 241 242 247 234 232 235 240 240 245 242 243 238 234 243 242 235 228 229 245 246 243 241 242 244 254 264 255 98 110 124 128
279 280 263 254 250 246 241 238 233 230 220 234 226 198 209 218 220 221 235 210 222 232 234 236 235 238 234 233 238 236 243 238 247 240 240 247 237 235 238 230 235 233 231 239 240 238 237 239 225 206 137 136 135 137
272 260 251 245 241 237 232 230 224 220 231 206 199 223 227 221 207 195 224 222 230 236 239 231 230 238 239 231 231 235 235 236 241 243 250 240 231 230 231 240 244 239 238 239 235 234 243 235 221 190 165 152 143 142
256 248 243 239 235 230 225 222 221 226 212 219 228 229 227 157 215 225 229 228 233 233 235 232 226 231 244 234 229 236 232 234 240 241 241 244 237 223 227 231 239 239 237 237 235 239 242 234 237 179 164 153 147 142
241 240 237 232 226 221 219 217 219 213 224 216 225 216 201 224 232 230 229 231 233 232 238 230 228 230 248 245 233 237 231 231 238 238 243 244 240 236 235 228 222 227 233 230 233 237 237 237 249 288 135 146 147 145
237 235 230 228 227 225 227 218 214 211 194 212 226 220 230 230 229 228 223 227 229 238 234 235 224 228 249 245 237 234 228 231 244 242 247 241 245 241 241 247 243 237 231 230 227 232 238 234 233 266 150 141 139 146
233 228 223 223 221 209 216 216 212 198 216 226 222 227 230 230 233 235 230 231 230 234 236 227 215 225 236 235 238 233 232 237 240 242 236 241 247 249 251 256 255 247 237 233 224 229 231 229 223 254 181 165 156 153
223 221 218 217 214 184 181 199 193 210 224 230 228 230 229 231 238 234 237 228 226 226 231 217 217 231 231 233 238 232 230 233 238 236 241 246 247 250 254 253 249 252 247 244 238 236 237 238 213 222 213 188 174 164
206 209 231 229 185 184 186 194 205 221 228 231 236 229 232 227 234 233 231 225 220 219 222 214 224 233 234 232 232 233 229 230 238 242 246 247 256 255 253 253 253 257 255 251 248 238 244 247 234 233 227 183 183 174
235 239 209 194 181 181 185 207 216 228 229 233 231 229 234 231 233 232 228 222 219 220 222 221 231 232 238 232 231 234 238 238 239 259 261 266 266 265 260 258 263 263 258 252 250 244 246 251 252 238 221 185 182 176
230 221 183 183 188 193 210 216 223 232 230 229 228 231 230 238 233 229 224 224 221 225 224 227 238 235 236 234 227 235 243 246 248 255 266 267 270 276 272 262 270 265 258 252 247 245 246 247 246 244 231 202 185 194
222 210 180 173 187 207 213 221 223 234 236 233 232 233 234 235 238 237 229 227 228 232 232 232 231 230 227 232 240 253 251 246 253 257 257 262 269 275 279 280 277 263 256 250 244 244 246 245 247 244 229 205 199 187
199 215 189 174 191 216 223 227 222 231 235 232 232 231 231 234 236 235 233 229 230 234 233 216 217 223 233 237 238 247 255 262 259 259 257 262 267 269 269 277 275 263 250 245 244 243 241 240 242 239 235 218 209 198
206 211 186 189 206 220 229 215 219 230 235 232 228 227 228 230 233 233 231 232 232 226 227 230 229 231 235 239 251 255 258 263 264 261 259 262 266 268 266 267 271 255 245 241 240 240 239 239 239 241 233 230 226 218
194 177 184 195 208 220 224 227 217 226 233 231 223 223 229 227 230 234 236 231 228 229 233 234 238 241 237 236 239 244 254 260 265 262 258 257 259 258 256 259 260 246 244 243 242 238 238 235 233 228 225 222 219 237
163 169 183 196 209 223 216 218 218 226 227 221 223 224 231 232 233 237 237 234 236 239 236 236 238 243 245 250 253 251 252 258 258 261 251 251 254 255 256 257 252 246 245 242 239 233 227 221 215 205 206 228 240 245
176 185 191 201 213 216 212 218 220 222 227 225 228 230 233 235 237 237 237 235 238 241 237 237 242 247 249 253 254 255 255 252 254 252 245 246 249 249 253 249 245 244 242 237 229 225 219 213 206 214 228 228 238 205
192 202 205 191 202 198 204 209 216 223 230 231 230 231 234 238 239 242 239 240 241 240 244 250 252 254 252 250 251 248 250 250 247 244 241 240 243 245 243 239 238 239 234 224 218 208 209 215 221 220 235 238 229 248
186 200 200 203 207 210 214 218 221 223 226 228 230 234 233 241 240 237 236 242 242 239 242 243 249 253 251 246 245 245 250 245 238 239 235 235 236 235 229 226 227 233 234 229 211 208 212 221 224 224 241 256 271 286
186 189 201 204 206 211 214 217 220 223 222 219 218 219 227 233 230 232 240 242 240 245 246 247 248 238 228 231 236 241 239 230 231 233 232 231 233 233 230 223 221 228 231 227 222 210 203 212 219 235 251 276 293 307
197 202 202 207 213 219 218 220 225 226 220 221 216 209 213 219 226 238 243 250 243 240 245 245 239 225 224 230 233 229 229 236 234 225 221 223 227 229 231 234 228 224 228 227 223 224 220 216 229 244 271 294 306 312
210 212 216 228 229 232 231 225 223 226 232 223 219 224 232 243 253 251 244 240 247 243 234 224 219 217 222 233 243 231 217 209 205 205 205 208 214 224 230 227 226 226 223 221 240 249 253 264 278 293 303 310 315 320
224 229 222 224 231 236 244 240 241 247 248 243 245 247 246 240 253 264 260 240 223 213 208 206 208 211 212 210 202 200 208 207 206 204 199 203 211 217 219 219 217 220 225 229 247 272 292 300 305 305 307 311 316 318
232 232 237 241 243 247 271 294 310 338 304 324 236 222 224 215 220 248 227 210 199 193 188 179 178 186 187 190 192 186 187 201 198 192 186 189 199 209 217 225 236 246 260 273 283 291 298 302 306 309 312 313 315 317
251 244 242 251 237 233 251 254 252 232 215 196 197 191 187 186 184 189 216 200 183 171 171 179 180 185 191 180 167 173 184 191 191 194 196 202 214 236 253 269 279 287 293 298 303 306 307 309 311 311 310 311 316 318
244 260 276 260 239 239 241 233 230 229 215 209 204 202 193 189 188 202 209 213 201 198 199 195 190 195 196 193 193 194 193 193 199 216 240 264 279 285 294 301 306 310 311 310 310 310 309 310 311 314 316 316 316 317